Location: Chanteloup
(48.8560°N, 2.7390°E)
Time: 10:35:33
(UTC+00:00)

ATLAS 3B R/B - Pass Details

Date: 24 October 2021
Orbit: 989 x 1206 km, 63.8° (Epoch: 25 November)

Event Time Altitude Azimuth Distance (km) Brightness Sun altitude
Rises 19:33:15 0° 289° (WNW) 3,797 6.8 -28.6°
Reaches altitude 10° 19:36:26 10° 304° (WNW) 2,878 5.8 -29.1°
Maximum altitude 19:41:48 24° 356° (N) 2,103 4.4 -30.0°
Enters shadow 19:44:27 19° 26° (NNE) 2,354 4.4 -30.4°
